Time,TemperatureF,DewpointF,PressureIn,WindDirection,WindDirectionDegrees,WindSpeedMPH,WindSpeedGustMPH,Humidity,HourlyPrecipIn,Conditions,Clouds,dailyrainin,SoftwareType,DateUTC
2013-03-24 00:01:00,68.0,67.0,29.80,ENE,61,2.0,5.0,95,0.00,,,0.00,Meteo,2013-03-24 04:01:00,
2013-03-24 00:03:00,68.0,67.0,29.80,ENE,69,2.0,5.0,95,0.00,,,0.00,Meteo,2013-03-24 04:03:00,
2013-03-24 00:07:00,68.0,67.0,29.80,ENE,72,1.0,2.0,95,0.00,,,0.00,Meteo,2013-03-24 04:07:00,
2013-03-24 00:12:00,68.0,67.0,29.80,East,80,1.0,4.0,95,0.00,,,0.00,Meteo,2013-03-24 04:12:00,
2013-03-24 00:13:00,68.0,67.0,29.80,East,79,2.0,3.0,95,0.00,,,0.00,Meteo,2013-03-24 04:13:00,
2013-03-24 00:18:00,68.0,67.0,29.79,East,89,1.0,2.0,95,0.00,,,0.00,Meteo,2013-03-24 04:18:00,
2013-03-24 00:23:00,68.0,67.0,29.79,East,92,2.0,5.0,95,0.00,,,0.00,Meteo,2013-03-24 04:23:00,
2013-03-24 00:28:00,68.0,67.0,29.79,East,87,1.0,4.0,95,0.00,,,0.00,Meteo,2013-03-24 04:28:00,
2013-03-24 00:33:00,67.0,66.0,29.79,East,79,2.0,3.0,95,0.00,,,0.00,Meteo,2013-03-24 04:33:00,
2013-03-24 00:38:00,67.0,66.0,29.79,ESE,119,1.0,3.0,95,0.00,,,0.00,Meteo,2013-03-24 04:38:00,
2013-03-24 00:43:00,67.0,66.0,29.79,NE,54,1.0,3.0,95,0.00,,,0.00,Meteo,2013-03-24 04:43:00,
2013-03-24 00:48:00,67.0,66.0,29.78,ENE,67,1.0,2.0,95,0.00,,,0.00,Meteo,2013-03-24 04:48:00,
2013-03-24 00:53:00,67.0,66.0,29.78,ENE,57,2.0,3.0,95,0.00,,,0.00,Meteo,2013-03-24 04:53:00,
2013-03-24 00:58:00,67.0,66.0,29.78,East,99,2.0,3.0,95,0.00,,,0.00,Meteo,2013-03-24 04:58:00,
2013-03-24 01:03:00,67.0,66.0,29.78,ESE,112,2.0,7.0,95,0.00,,,0.00,Meteo,2013-03-24 05:03:00,
2013-03-24 01:08:00,67.0,66.0,29.78,ESE,109,1.0,2.0,95,0.00,,,0.00,Meteo,2013-03-24 05:08:00,
2013-03-24 01:13:00,67.0,66.0,29.78,ESE,108,0.0,2.0,95,0.00,,,0.00,Meteo,2013-03-24 05:13:00,
2013-03-24 01:18:00,67.0,66.0,29.76,ESE,115,2.0,5.0,95,0.00,,,0.00,Meteo,2013-03-24 05:18:00,
2013-03-24 01:23:00,67.0,66.0,29.76,ESE,102,2.0,5.0,95,0.00,,,0.00,Meteo,2013-03-24 05:23:00,
2013-03-24 01:28:00,67.0,66.0,29.76,ESE,112,1.0,3.0,95,0.00,,,0.00,Meteo,2013-03-24 05:28:00,
2013-03-24 01:33:00,67.0,66.0,29.76,ESE,110,2.0,3.0,95,0.00,,,0.00,Meteo,2013-03-24 05:33:00,
2013-03-24 01:38:00,67.0,66.0,29.76,ESE,109,0.0,1.0,96,0.00,,,0.00,Meteo,2013-03-24 05:38:00,
2013-03-24 01:43:00,67.0,66.0,29.76,ESE,113,1.0,4.0,96,0.00,,,0.00,Meteo,2013-03-24 05:43:00,
2013-03-24 01:48:00,67.0,66.0,29.75,East,99,1.0,2.0,96,0.00,,,0.00,Meteo,2013-03-24 05:48:00,
2013-03-24 01:53:00,67.0,66.0,29.75,ESE,111,2.0,5.0,96,0.00,,,0.00,Meteo,2013-03-24 05:53:00,
2013-03-24 01:58:00,67.0,66.0,29.75,ESE,121,1.0,3.0,96,0.00,,,0.00,Meteo,2013-03-24 05:58:00,
2013-03-24 02:03:00,67.0,66.0,29.74,ESE,120,2.0,6.0,96,0.00,,,0.00,Meteo,2013-03-24 06:03:00,
2013-03-24 02:08:00,67.0,66.0,29.74,ESE,108,1.0,3.0,96,0.00,,,0.00,Meteo,2013-03-24 06:08:00,
2013-03-24 02:14:00,67.0,66.0,29.74,ESE,120,1.0,2.0,97,0.00,,,0.00,Meteo,2013-03-24 06:14:00,
2013-03-24 02:19:00,67.0,66.0,29.73,ESE,114,1.0,2.0,97,0.00,,,0.00,Meteo,2013-03-24 06:19:00,
2013-03-24 02:24:00,67.0,66.0,29.73,ESE,109,0.0,1.0,97,0.00,,,0.00,Meteo,2013-03-24 06:24:00,
2013-03-24 02:29:00,67.0,66.0,29.73,ESE,107,2.0,3.0,97,0.00,,,0.00,Meteo,2013-03-24 06:29:00,
2013-03-24 02:34:00,67.0,66.0,29.73,ESE,112,1.0,4.0,97,0.00,,,0.00,Meteo,2013-03-24 06:34:00,
2013-03-24 02:39:00,67.0,66.0,29.73,ESE,112,2.0,5.0,97,0.00,,,0.00,Meteo,2013-03-24 06:39:00,
2013-03-24 02:44:00,67.0,66.0,29.73,ESE,118,2.0,6.0,97,0.00,,,0.00,Meteo,2013-03-24 06:44:00,
2013-03-24 02:49:00,67.0,66.0,29.72,ESE,116,1.0,3.0,97,0.00,,,0.00,Meteo,2013-03-24 06:49:00,
2013-03-24 02:54:00,67.0,66.0,29.72,SE,124,4.0,7.0,97,0.00,,,0.00,Meteo,2013-03-24 06:54:00,
2013-03-24 02:59:00,67.0,66.0,29.72,SE,124,1.0,2.0,97,0.00,,,0.00,Meteo,2013-03-24 06:59:00,
2013-03-24 03:04:00,68.0,67.0,29.72,North,0,0.0,0.0,98,0.00,,,0.00,Meteo,2013-03-24 07:04:00,
2013-03-24 03:09:00,68.0,67.0,29.72,SE,131,0.0,1.0,98,0.00,,,0.00,Meteo,2013-03-24 07:09:00,
2013-03-24 03:14:00,68.0,67.0,29.72,SE,127,2.0,3.0,98,0.00,,,0.00,Meteo,2013-03-24 07:14:00,
2013-03-24 03:19:00,68.0,67.0,29.71,SE,127,2.0,3.0,98,0.00,,,0.00,Meteo,2013-03-24 07:19:00,
2013-03-24 03:24:00,68.0,67.0,29.71,SE,127,2.0,4.0,98,0.00,,,0.00,Meteo,2013-03-24 07:24:00,
2013-03-24 03:29:00,68.0,67.0,29.71,SE,128,1.0,2.0,98,0.00,,,0.00,Meteo,2013-03-24 07:29:00,
2013-03-24 03:34:00,68.0,67.0,29.70,SE,127,0.0,2.0,98,0.00,,,0.00,Meteo,2013-03-24 07:34:00,
2013-03-24 03:39:00,68.0,67.0,29.70,SE,124,0.0,2.0,98,0.00,,,0.00,Meteo,2013-03-24 07:39:00,
2013-03-24 03:44:00,68.0,67.0,29.70,ESE,116,3.0,6.0,98,0.00,,,0.00,Meteo,2013-03-24 07:44:00,
2013-03-24 03:49:00,68.0,67.0,29.69,SE,136,1.0,6.0,98,0.00,,,0.00,Meteo,2013-03-24 07:49:00,
2013-03-24 03:54:00,68.0,67.0,29.69,SE,128,0.0,2.0,98,0.00,,,0.00,Meteo,2013-03-24 07:54:00,
2013-03-24 03:59:00,68.0,67.0,29.69,SE,132,1.0,5.0,98,0.00,,,0.00,Meteo,2013-03-24 07:59:00,
2013-03-24 04:04:00,68.0,67.0,29.68,SE,125,1.0,3.0,98,0.00,,,0.00,Meteo,2013-03-24 08:04:00,
2013-03-24 04:09:00,68.0,67.0,29.68,SE,130,0.0,2.0,98,0.00,,,0.00,Meteo,2013-03-24 08:09:00,
2013-03-24 04:14:00,68.0,67.0,29.68,SE,129,0.0,1.0,98,0.00,,,0.00,Meteo,2013-03-24 08:14:00,
2013-03-24 04:19:00,68.0,67.0,29.68,SE,130,0.0,1.0,98,0.00,,,0.00,Meteo,2013-03-24 08:19:00,
2013-03-24 04:24:00,68.0,67.0,29.68,SE,128,3.0,7.0,98,0.00,,,0.00,Meteo,2013-03-24 08:24:00,
2013-03-24 04:29:00,68.0,67.0,29.68,SE,134,1.0,3.0,98,0.00,,,0.00,Meteo,2013-03-24 08:29:00,
2013-03-24 04:34:00,68.0,67.0,29.67,SE,137,1.0,5.0,98,0.00,,,0.00,Meteo,2013-03-24 08:34:00,
2013-03-24 04:39:00,68.0,67.0,29.67,SSE,161,2.0,5.0,98,0.00,,,0.00,Meteo,2013-03-24 08:39:00,
2013-03-24 04:44:00,68.0,67.0,29.67,South,169,1.0,2.0,98,0.00,,,0.00,Meteo,2013-03-24 08:44:00,
2013-03-24 04:49:00,68.0,67.0,29.67,South,171,3.0,5.0,98,0.00,,,0.00,Meteo,2013-03-24 08:49:00,
2013-03-24 04:54:00,68.0,67.0,29.67,SSE,164,2.0,5.0,98,0.00,,,0.00,Meteo,2013-03-24 08:54:00,
2013-03-24 05:00:00,68.0,67.0,29.66,South,179,2.0,5.0,98,0.00,,,0.00,Meteo,2013-03-24 09:00:00,
2013-03-24 05:05:00,68.0,67.0,29.66,South,189,0.0,1.0,98,0.00,,,0.00,Meteo,2013-03-24 09:05:00,
2013-03-24 05:11:00,68.0,67.0,29.66,North,0,0.0,0.0,98,0.00,,,0.00,Meteo,2013-03-24 09:11:00,
2013-03-24 05:16:00,68.0,67.0,29.66,South,185,0.0,2.0,98,0.00,,,0.00,Meteo,2013-03-24 09:16:00,
2013-03-24 05:21:00,68.0,67.0,29.66,South,184,3.0,5.0,98,0.00,,,0.00,Meteo,2013-03-24 09:21:00,
2013-03-24 05:26:00,68.0,67.0,29.66,SSW,202,3.0,6.0,98,0.00,,,0.00,Meteo,2013-03-24 09:26:00,
2013-03-24 05:31:00,68.0,67.0,29.65,SSW,200,1.0,3.0,98,0.00,,,0.00,Meteo,2013-03-24 09:31:00,
2013-03-24 05:36:00,68.0,67.0,29.65,South,180,1.0,2.0,98,0.00,,,0.00,Meteo,2013-03-24 09:36:00,
2013-03-24 05:41:00,69.0,68.0,29.65,SSW,195,2.0,6.0,98,0.00,,,0.00,Meteo,2013-03-24 09:41:00,
2013-03-24 05:46:00,69.0,68.0,29.65,SSW,205,2.0,6.0,98,0.00,,,0.00,Meteo,2013-03-24 09:46:00,
2013-03-24 05:51:00,69.0,68.0,29.64,SSW,206,3.0,7.0,98,0.00,,,0.00,Meteo,2013-03-24 09:51:00,
2013-03-24 05:56:00,69.0,68.0,29.64,SSW,195,4.0,7.0,98,0.00,,,0.00,Meteo,2013-03-24 09:56:00,
2013-03-24 06:01:00,69.0,68.0,29.64,SSW,211,4.0,7.0,98,0.00,,,0.00,Meteo,2013-03-24 10:01:00,
2013-03-24 06:06:00,69.0,68.0,29.64,SW,214,3.0,6.0,98,0.00,,,0.00,Meteo,2013-03-24 10:06:00,
2013-03-24 06:11:00,69.0,68.0,29.64,South,187,2.0,5.0,98,0.00,,,0.00,Meteo,2013-03-24 10:11:00,
2013-03-24 06:16:00,69.0,68.0,29.63,South,191,3.0,7.0,98,0.00,,,0.00,Meteo,2013-03-24 10:16:00,
2013-03-24 06:21:00,69.0,68.0,29.63,SSW,192,3.0,7.0,98,0.00,,,0.00,Meteo,2013-03-24 10:21:00,
2013-03-24 06:26:00,69.0,68.0,29.63,SSW,203,2.0,3.0,98,0.00,,,0.00,Meteo,2013-03-24 10:26:00,
2013-03-24 06:31:00,69.0,68.0,29.63,SSW,200,3.0,4.0,98,0.00,,,0.00,Meteo,2013-03-24 10:31:00,
2013-03-24 06:36:00,69.0,68.0,29.63,SSW,204,2.0,3.0,98,0.00,,,0.00,Meteo,2013-03-24 10:36:00,
2013-03-24 06:41:00,69.0,68.0,29.63,SSW,200,2.0,3.0,98,0.00,,,0.00,Meteo,2013-03-24 10:41:00,
2013-03-24 06:46:00,69.0,68.0,29.63,SSW,204,1.0,2.0,97,0.00,,,0.00,Meteo,2013-03-24 10:46:00,
2013-03-24 06:51:00,69.0,68.0,29.63,South,185,4.0,6.0,97,0.00,,,0.00,Meteo,2013-03-24 10:51:00,
2013-03-24 06:56:00,69.0,68.0,29.63,SSW,192,3.0,8.0,97,0.00,,,0.00,Meteo,2013-03-24 10:56:00,
2013-03-24 07:01:00,69.0,68.0,29.63,SSW,204,4.0,7.0,97,0.00,,,0.00,Meteo,2013-03-24 11:01:00,
2013-03-24 07:06:00,69.0,68.0,29.63,SSW,211,3.0,6.0,96,0.00,,,0.00,Meteo,2013-03-24 11:06:00,
2013-03-24 07:11:00,69.0,68.0,29.63,SSW,206,4.0,8.0,96,0.00,,,0.00,Meteo,2013-03-24 11:11:00,
2013-03-24 07:16:00,69.0,68.0,29.63,SSW,205,3.0,6.0,96,0.00,,,0.00,Meteo,2013-03-24 11:16:00,
2013-03-24 07:21:00,69.0,68.0,29.63,SSW,195,4.0,6.0,95,0.00,,,0.00,Meteo,2013-03-24 11:21:00,
2013-03-24 07:26:00,69.0,67.0,29.63,SSW,203,2.0,3.0,94,0.00,,,0.00,Meteo,2013-03-24 11:26:00,
2013-03-24 07:31:00,70.0,68.0,29.62,SSW,199,5.0,8.0,93,0.00,,,0.00,Meteo,2013-03-24 11:31:00,
2013-03-24 07:36:00,70.0,68.0,29.62,SSW,198,4.0,6.0,93,0.00,,,0.00,Meteo,2013-03-24 11:36:00,
2013-03-24 07:41:00,70.0,68.0,29.62,South,191,4.0,7.0,92,0.00,,,0.00,Meteo,2013-03-24 11:41:00,
2013-03-24 07:46:00,70.0,67.0,29.62,SSW,192,6.0,11.0,91,0.00,,,0.00,Meteo,2013-03-24 11:46:00,
2013-03-24 07:51:00,70.0,67.0,29.62,SSW,196,5.0,8.0,91,0.00,,,0.00,Meteo,2013-03-24 11:51:00,
2013-03-24 07:56:00,70.0,67.0,29.62,South,191,5.0,10.0,90,0.00,,,0.00,Meteo,2013-03-24 11:56:00,
2013-03-24 08:01:00,70.0,67.0,29.62,SSW,198,5.0,8.0,90,0.00,,,0.00,Meteo,2013-03-24 12:01:00,
2013-03-24 08:06:00,71.0,68.0,29.62,SSW,212,6.0,8.0,90,0.00,,,0.00,Meteo,2013-03-24 12:06:00,
2013-03-24 08:11:00,71.0,68.0,29.62,SSW,208,5.0,8.0,89,0.00,,,0.00,Meteo,2013-03-24 12:11:00,
2013-03-24 08:16:00,71.0,68.0,29.62,SSW,198,6.0,12.0,89,0.00,,,0.00,Meteo,2013-03-24 12:16:00,
2013-03-24 08:21:00,71.0,68.0,29.62,SSW,201,7.0,11.0,89,0.00,,,0.00,Meteo,2013-03-24 12:21:00,
2013-03-24 08:26:00,72.0,69.0,29.62,SSW,211,4.0,8.0,89,0.00,,,0.00,Meteo,2013-03-24 12:26:00,
2013-03-24 08:32:00,72.0,69.0,29.62,SW,218,8.0,17.0,89,0.00,,,0.00,Meteo,2013-03-24 12:32:00,
2013-03-24 08:37:00,72.0,69.0,29.62,SW,234,7.0,13.0,89,0.00,,,0.00,Meteo,2013-03-24 12:37:00,
2013-03-24 08:42:00,72.0,69.0,29.62,SSW,207,10.0,17.0,89,0.00,,,0.00,Meteo,2013-03-24 12:42:00,
2013-03-24 08:47:00,72.0,69.0,29.63,SW,229,4.0,8.0,89,0.00,,,0.00,Meteo,2013-03-24 12:47:00,
2013-03-24 08:52:00,72.0,69.0,29.63,SW,228,5.0,8.0,89,0.00,,,0.00,Meteo,2013-03-24 12:52:00,
2013-03-24 08:57:00,72.0,69.0,29.63,WSW,241,5.0,7.0,89,0.00,,,0.00,Meteo,2013-03-24 12:57:00,
2013-03-24 09:03:00,72.0,69.0,29.64,WSW,250,4.0,11.0,89,0.00,,,0.00,Meteo,2013-03-24 13:03:00,
2013-03-24 09:08:00,72.0,69.0,29.64,WSW,238,6.0,11.0,89,0.00,,,0.00,Meteo,2013-03-24 13:08:00,
2013-03-24 09:13:00,72.0,69.0,29.64,WSW,249,4.0,5.0,89,0.00,,,0.00,Meteo,2013-03-24 13:13:00,
2013-03-24 09:18:00,72.0,69.0,29.67,WSW,240,6.0,10.0,90,0.00,,,0.00,Meteo,2013-03-24 13:18:00,
2013-03-24 09:23:00,72.0,69.0,29.67,WSW,254,3.0,5.0,90,0.00,,,0.00,Meteo,2013-03-24 13:23:00,
2013-03-24 09:28:00,72.0,70.0,29.67,SW,234,4.0,7.0,92,0.00,,,0.00,Meteo,2013-03-24 13:28:00,
2013-03-24 09:33:00,72.0,70.0,29.68,WSW,244,5.0,7.0,93,0.00,,,0.00,Meteo,2013-03-24 13:33:00,
2013-03-24 09:38:00,72.0,70.0,29.68,SW,230,3.0,7.0,93,0.00,,,0.00,Meteo,2013-03-24 13:38:00,
2013-03-24 09:43:00,72.0,70.0,29.68,WSW,251,5.0,7.0,94,0.00,,,0.00,Meteo,2013-03-24 13:43:00,
2013-03-24 09:48:00,73.0,71.0,29.68,SW,223,5.0,8.0,95,0.00,,,0.00,Meteo,2013-03-24 13:48:00,
2013-03-24 09:53:00,73.0,71.0,29.68,SW,236,4.0,7.0,95,0.00,,,0.00,Meteo,2013-03-24 13:53:00,
2013-03-24 09:58:00,73.0,71.0,29.68,SW,228,3.0,6.0,95,0.00,,,0.00,Meteo,2013-03-24 13:58:00,
2013-03-24 10:04:00,73.0,71.0,29.67,WSW,239,5.0,7.0,95,0.00,,,0.00,Meteo,2013-03-24 14:04:00,
2013-03-24 10:09:00,73.0,71.0,29.67,SW,224,8.0,13.0,95,0.01,,,0.01,Meteo,2013-03-24 14:09:00,
2013-03-24 10:14:00,74.0,72.0,29.67,SW,231,6.0,12.0,94,0.01,,,0.01,Meteo,2013-03-24 14:14:00,
2013-03-24 10:19:00,74.0,72.0,29.67,SW,232,5.0,7.0,94,0.01,,,0.01,Meteo,2013-03-24 14:19:00,
2013-03-24 10:24:00,75.0,73.0,29.67,SW,230,6.0,8.0,93,0.01,,,0.01,Meteo,2013-03-24 14:24:00,
2013-03-24 10:29:00,75.0,72.0,29.67,SW,228,10.0,12.0,90,0.01,,,0.01,Meteo,2013-03-24 14:29:00,
2013-03-24 10:34:00,75.0,72.0,29.66,SW,233,6.0,8.0,90,0.01,,,0.01,Meteo,2013-03-24 14:34:00,
2013-03-24 10:39:00,75.0,72.0,29.66,SW,230,8.0,13.0,89,0.01,,,0.01,Meteo,2013-03-24 14:39:00,
2013-03-24 10:44:00,75.0,72.0,29.66,SW,223,5.0,8.0,89,0.01,,,0.01,Meteo,2013-03-24 14:44:00,
2013-03-24 10:49:00,75.0,71.0,29.66,SW,233,7.0,12.0,88,0.01,,,0.01,Meteo,2013-03-24 14:49:00,
2013-03-24 10:55:00,76.0,72.0,29.66,SW,234,8.0,12.0,87,0.01,,,0.01,Meteo,2013-03-24 14:55:00,
2013-03-24 11:00:00,76.0,72.0,29.65,SW,231,7.0,14.0,86,0.01,,,0.01,Meteo,2013-03-24 15:00:00,
2013-03-24 11:05:00,77.0,72.0,29.65,SW,232,4.0,7.0,84,0.01,,,0.01,Meteo,2013-03-24 15:05:00,
2013-03-24 11:10:00,77.0,71.0,29.65,SW,228,11.0,17.0,83,0.00,,,0.01,Meteo,2013-03-24 15:10:00,
2013-03-24 11:15:00,78.0,71.0,29.65,SW,227,12.0,18.0,80,0.00,,,0.01,Meteo,2013-03-24 15:15:00,
2013-03-24 11:21:00,78.0,71.0,29.65,SW,232,13.0,24.0,78,0.00,,,0.01,Meteo,2013-03-24 15:21:00,
2013-03-24 11:26:00,79.0,71.0,29.65,WSW,237,10.0,17.0,77,0.00,,,0.01,Meteo,2013-03-24 15:26:00,
2013-03-24 11:31:00,79.0,71.0,29.65,SW,228,8.0,12.0,76,0.00,,,0.01,Meteo,2013-03-24 15:31:00,
2013-03-24 11:36:00,79.0,70.0,29.65,SW,233,9.0,20.0,75,0.00,,,0.01,Meteo,2013-03-24 15:36:00,
2013-03-24 11:41:00,80.0,71.0,29.65,WSW,238,7.0,12.0,74,0.00,,,0.01,Meteo,2013-03-24 15:41:00,
2013-03-24 11:46:00,80.0,71.0,29.65,SW,228,9.0,17.0,73,0.00,,,0.01,Meteo,2013-03-24 15:46:00,
2013-03-24 11:51:00,80.0,71.0,29.65,SW,224,11.0,18.0,73,0.00,,,0.01,Meteo,2013-03-24 15:51:00,
2013-03-24 11:56:00,80.0,70.0,29.65,SW,226,12.0,18.0,72,0.00,,,0.01,Meteo,2013-03-24 15:56:00,
2013-03-24 12:01:00,81.0,70.0,29.62,SW,229,17.0,28.0,70,0.00,,,0.01,Meteo,2013-03-24 16:01:00,
2013-03-24 12:06:00,82.0,70.0,29.62,WSW,237,12.0,21.0,67,0.00,,,0.01,Meteo,2013-03-24 16:06:00,
2013-03-24 12:11:00,83.0,70.0,29.62,WSW,249,8.0,16.0,66,0.00,,,0.01,Meteo,2013-03-24 16:11:00,
2013-03-24 12:16:00,83.0,70.0,29.64,SW,233,19.0,28.0,64,0.00,,,0.01,Meteo,2013-03-24 16:16:00,
2013-03-24 12:21:00,83.0,70.0,29.64,WSW,237,10.0,15.0,66,0.00,,,0.01,Meteo,2013-03-24 16:21:00,
2013-03-24 12:26:00,83.0,70.0,29.64,SW,214,11.0,20.0,66,0.00,,,0.01,Meteo,2013-03-24 16:26:00,
2013-03-24 12:31:00,83.0,70.0,29.64,SW,233,19.0,28.0,65,0.00,,,0.01,Meteo,2013-03-24 16:31:00,
2013-03-24 12:36:00,82.0,70.0,29.64,WSW,242,10.0,14.0,66,0.00,,,0.01,Meteo,2013-03-24 16:36:00,
2013-03-24 12:41:00,81.0,69.0,29.64,WSW,237,16.0,30.0,67,0.00,,,0.01,Meteo,2013-03-24 16:41:00,
2013-03-24 12:46:00,81.0,69.0,29.64,WSW,241,10.0,18.0,67,0.00,,,0.01,Meteo,2013-03-24 16:46:00,
2013-03-24 12:52:00,81.0,69.0,29.64,WSW,249,16.0,25.0,67,0.00,,,0.01,Meteo,2013-03-24 16:52:00,
2013-03-24 12:57:00,81.0,69.0,29.64,WSW,244,16.0,26.0,67,0.00,,,0.01,Meteo,2013-03-24 16:57:00,
2013-03-24 13:02:00,81.0,69.0,29.63,WSW,237,8.0,16.0,67,0.00,,,0.01,Meteo,2013-03-24 17:02:00,
2013-03-24 13:07:00,81.0,69.0,29.63,WSW,238,11.0,19.0,67,0.00,,,0.01,Meteo,2013-03-24 17:07:00,
2013-03-24 13:13:00,81.0,69.0,29.63,WSW,238,12.0,18.0,68,0.00,,,0.01,Meteo,2013-03-24 17:13:00,
2013-03-24 13:18:00,81.0,69.0,29.62,SW,232,12.0,24.0,67,0.00,,,0.01,Meteo,2013-03-24 17:18:00,
2013-03-24 13:23:00,81.0,69.0,29.62,WSW,241,11.0,20.0,67,0.00,,,0.01,Meteo,2013-03-24 17:23:00,
2013-03-24 13:29:00,81.0,69.0,29.62,SW,230,10.0,16.0,67,0.00,,,0.01,Meteo,2013-03-24 17:29:00,
2013-03-24 13:34:00,81.0,69.0,29.61,SW,226,14.0,24.0,68,0.00,,,0.01,Meteo,2013-03-24 17:34:00,
2013-03-24 13:39:00,81.0,69.0,29.61,WSW,240,8.0,16.0,68,0.00,,,0.01,Meteo,2013-03-24 17:39:00,
2013-03-24 13:44:00,81.0,69.0,29.61,SW,225,7.0,13.0,68,0.00,,,0.01,Meteo,2013-03-24 17:44:00,
2013-03-24 13:49:00,81.0,70.0,29.60,SW,229,14.0,20.0,69,0.00,,,0.01,Meteo,2013-03-24 17:49:00,
2013-03-24 13:54:00,81.0,69.0,29.60,SW,225,9.0,18.0,68,0.00,,,0.01,Meteo,2013-03-24 17:54:00,
2013-03-24 13:59:00,81.0,69.0,29.60,WSW,239,8.0,14.0,68,0.00,,,0.01,Meteo,2013-03-24 17:59:00,
2013-03-24 14:04:00,80.0,69.0,29.60,WSW,248,7.0,12.0,69,0.00,,,0.01,Meteo,2013-03-24 18:04:00,
2013-03-24 14:09:00,80.0,68.0,29.60,WSW,248,11.0,21.0,68,0.00,,,0.01,Meteo,2013-03-24 18:09:00,
2013-03-24 14:15:00,80.0,69.0,29.59,SSW,209,8.0,12.0,69,0.00,,,0.01,Meteo,2013-03-24 18:15:00,
2013-03-24 14:20:00,80.0,69.0,29.59,SW,232,4.0,7.0,69,0.00,,,0.01,Meteo,2013-03-24 18:20:00,
2013-03-24 14:25:00,80.0,69.0,29.59,SW,233,11.0,18.0,70,0.00,,,0.01,Meteo,2013-03-24 18:25:00,
2013-03-24 14:30:00,80.0,69.0,29.59,SW,232,8.0,14.0,70,0.00,,,0.01,Meteo,2013-03-24 18:30:00,
2013-03-24 14:36:00,80.0,69.0,29.57,WSW,255,3.0,8.0,69,0.00,,,0.01,Meteo,2013-03-24 18:36:00,
2013-03-24 14:41:00,80.0,69.0,29.57,WNW,290,4.0,7.0,70,0.00,,,0.01,Meteo,2013-03-24 18:41:00,
2013-03-24 14:46:00,79.0,71.0,29.65,NW,307,12.0,22.0,76,0.09,,,0.10,Meteo,2013-03-24 18:46:00,
2013-03-24 14:51:00,72.0,67.0,29.65,WNW,292,12.0,27.0,85,0.45,,,0.46,Meteo,2013-03-24 18:51:00,
2013-03-24 14:56:00,68.0,64.0,29.65,North,356,8.0,12.0,88,0.74,,,0.75,Meteo,2013-03-24 18:56:00,
2013-03-24 15:01:00,66.0,64.0,29.61,WSW,255,8.0,14.0,92,0.84,,,0.85,Meteo,2013-03-24 19:01:00,
2013-03-24 15:07:00,66.0,63.0,29.61,WSW,252,9.0,18.0,91,0.84,,,0.85,Meteo,2013-03-24 19:07:00,
2013-03-24 15:13:00,66.0,63.0,29.61,SW,232,7.0,19.0,91,0.85,,,0.86,Meteo,2013-03-24 19:13:00,
2013-03-24 15:18:00,66.0,64.0,29.60,WSW,242,16.0,21.0,92,0.87,,,0.88,Meteo,2013-03-24 19:18:00,
2013-03-24 15:23:00,66.0,64.0,29.60,WSW,252,8.0,16.0,93,0.90,,,0.91,Meteo,2013-03-24 19:23:00,
2013-03-24 15:28:00,66.0,64.0,29.60,WSW,249,18.0,26.0,93,0.90,,,0.91,Meteo,2013-03-24 19:28:00,
2013-03-24 15:33:00,65.0,63.0,29.61,WSW,246,12.0,20.0,94,0.92,,,0.93,Meteo,2013-03-24 19:33:00,
2013-03-24 15:38:00,65.0,63.0,29.61,West,269,11.0,22.0,93,0.93,,,0.94,Meteo,2013-03-24 19:38:00,
2013-03-24 15:43:00,66.0,63.0,29.61,West,270,20.0,28.0,91,0.93,,,0.94,Meteo,2013-03-24 19:43:00,
2013-03-24 15:48:00,66.0,63.0,29.58,West,278,12.0,22.0,90,0.79,,,0.95,Meteo,2013-03-24 19:48:00,
2013-03-24 15:53:00,66.0,63.0,29.58,West,275,10.0,19.0,89,0.34,,,0.96,Meteo,2013-03-24 19:53:00,
2013-03-24 15:58:00,67.0,64.0,29.58,WSW,249,15.0,27.0,89,0.14,,,0.99,Meteo,2013-03-24 19:58:00,
2013-03-24 16:03:00,67.0,64.0,29.58,WSW,242,12.0,20.0,89,0.15,,,1.00,Meteo,2013-03-24 20:03:00,
2013-03-24 16:09:00,68.0,64.0,29.58,WSW,256,14.0,24.0,88,0.20,,,1.05,Meteo,2013-03-24 20:09:00,
2013-03-24 16:14:00,68.0,64.0,29.58,WSW,254,11.0,20.0,88,0.18,,,1.05,Meteo,2013-03-24 20:14:00,
2013-03-24 16:19:00,69.0,66.0,29.57,WSW,250,6.0,10.0,90,0.16,,,1.05,Meteo,2013-03-24 20:19:00,
2013-03-24 16:24:00,70.0,67.0,29.57,WSW,239,7.0,10.0,91,0.14,,,1.05,Meteo,2013-03-24 20:24:00,
2013-03-24 16:29:00,71.0,69.0,29.57,WSW,249,7.0,12.0,93,0.14,,,1.06,Meteo,2013-03-24 20:29:00,
2013-03-24 16:35:00,72.0,70.0,29.57,SW,228,10.0,18.0,93,0.12,,,1.06,Meteo,2013-03-24 20:35:00,
2013-03-24 16:40:00,73.0,71.0,29.57,WSW,250,9.0,14.0,92,0.12,,,1.06,Meteo,2013-03-24 20:40:00,
2013-03-24 16:45:00,74.0,72.0,29.57,WSW,256,7.0,12.0,92,0.12,,,1.06,Meteo,2013-03-24 20:45:00,
2013-03-24 16:50:00,74.0,72.0,29.57,WSW,246,7.0,12.0,92,0.10,,,1.06,Meteo,2013-03-24 20:50:00,
2013-03-24 16:55:00,75.0,72.0,29.57,WSW,253,8.0,14.0,91,0.09,,,1.06,Meteo,2013-03-24 20:55:00,
2013-03-24 17:01:00,75.0,72.0,29.56,WSW,251,5.0,8.0,90,0.06,,,1.06,Meteo,2013-03-24 21:01:00,
2013-03-24 17:06:00,75.0,72.0,29.56,West,266,5.0,8.0,89,0.05,,,1.06,Meteo,2013-03-24 21:06:00,
2013-03-24 17:11:00,76.0,73.0,29.56,WSW,257,7.0,14.0,89,0.01,,,1.06,Meteo,2013-03-24 21:11:00,
2013-03-24 17:16:00,76.0,72.0,29.56,West,260,6.0,11.0,87,0.01,,,1.06,Meteo,2013-03-24 21:16:00,
2013-03-24 17:21:00,76.0,72.0,29.56,WSW,254,4.0,7.0,87,0.01,,,1.06,Meteo,2013-03-24 21:21:00,
2013-03-24 17:26:00,76.0,72.0,29.56,West,265,7.0,11.0,87,0.01,,,1.06,Meteo,2013-03-24 21:26:00,
2013-03-24 17:31:00,76.0,72.0,29.56,WSW,237,6.0,10.0,87,0.00,,,1.06,Meteo,2013-03-24 21:31:00,
2013-03-24 17:36:00,76.0,72.0,29.56,SW,215,4.0,6.0,87,0.00,,,1.06,Meteo,2013-03-24 21:36:00,
2013-03-24 17:41:00,76.0,72.0,29.56,SW,227,5.0,8.0,87,0.00,,,1.06,Meteo,2013-03-24 21:41:00,
2013-03-24 17:46:00,76.0,72.0,29.56,SW,231,7.0,10.0,87,0.00,,,1.06,Meteo,2013-03-24 21:46:00,
2013-03-24 17:51:00,76.0,72.0,29.56,SW,229,5.0,11.0,87,0.00,,,1.06,Meteo,2013-03-24 21:51:00,
2013-03-24 17:56:00,77.0,72.0,29.56,SW,232,7.0,9.0,86,0.00,,,1.06,Meteo,2013-03-24 21:56:00,
2013-03-24 18:01:00,77.0,72.0,29.56,SSW,209,4.0,8.0,86,0.00,,,1.06,Meteo,2013-03-24 22:01:00,
2013-03-24 18:06:00,76.0,72.0,29.56,SSW,204,6.0,8.0,87,0.00,,,1.06,Meteo,2013-03-24 22:06:00,
2013-03-24 18:11:00,76.0,72.0,29.56,SSW,204,3.0,5.0,87,0.00,,,1.06,Meteo,2013-03-24 22:11:00,
2013-03-24 18:16:00,76.0,72.0,29.56,SW,217,6.0,10.0,87,0.00,,,1.06,Meteo,2013-03-24 22:16:00,
2013-03-24 18:21:00,76.0,72.0,29.56,SW,230,2.0,3.0,87,0.00,,,1.06,Meteo,2013-03-24 22:21:00,
2013-03-24 18:26:00,76.0,72.0,29.56,WSW,244,2.0,5.0,88,0.00,,,1.06,Meteo,2013-03-24 22:26:00,
2013-03-24 18:31:00,76.0,72.0,29.57,SW,216,5.0,8.0,88,0.00,,,1.06,Meteo,2013-03-24 22:31:00,
2013-03-24 18:36:00,76.0,72.0,29.57,SW,220,5.0,7.0,88,0.00,,,1.06,Meteo,2013-03-24 22:36:00,
2013-03-24 18:41:00,76.0,72.0,29.57,SW,225,3.0,7.0,88,0.00,,,1.06,Meteo,2013-03-24 22:41:00,
2013-03-24 18:46:00,75.0,72.0,29.57,SW,218,5.0,7.0,89,0.00,,,1.06,Meteo,2013-03-24 22:46:00,
2013-03-24 18:51:00,75.0,72.0,29.57,SW,234,2.0,4.0,89,0.00,,,1.06,Meteo,2013-03-24 22:51:00,
2013-03-24 18:56:00,75.0,72.0,29.57,WSW,244,1.0,2.0,89,0.00,,,1.06,Meteo,2013-03-24 22:56:00,
2013-03-24 19:01:00,75.0,72.0,29.57,WSW,255,2.0,5.0,89,0.00,,,1.06,Meteo,2013-03-24 23:01:00,
2013-03-24 19:06:00,75.0,72.0,29.57,SW,232,2.0,7.0,90,0.00,,,1.06,Meteo,2013-03-24 23:06:00,
2013-03-24 19:11:00,75.0,72.0,29.57,WSW,237,3.0,6.0,90,0.00,,,1.06,Meteo,2013-03-24 23:11:00,
2013-03-24 19:16:00,75.0,72.0,29.57,SW,228,3.0,6.0,90,0.00,,,1.06,Meteo,2013-03-24 23:16:00,
2013-03-24 19:21:00,75.0,72.0,29.57,WSW,256,2.0,3.0,90,0.00,,,1.06,Meteo,2013-03-24 23:21:00,
2013-03-24 19:26:00,76.0,73.0,29.57,West,280,4.0,6.0,89,0.00,,,1.06,Meteo,2013-03-24 23:26:00,
2013-03-24 19:31:00,76.0,72.0,29.58,West,275,5.0,12.0,88,0.00,,,1.06,Meteo,2013-03-24 23:31:00,
2013-03-24 19:36:00,76.0,72.0,29.58,West,272,6.0,12.0,87,0.00,,,1.06,Meteo,2013-03-24 23:36:00,
2013-03-24 19:41:00,76.0,71.0,29.58,West,269,9.0,16.0,84,0.00,,,1.06,Meteo,2013-03-24 23:41:00,
2013-03-24 19:46:00,76.0,71.0,29.58,West,269,7.0,12.0,84,0.00,,,1.06,Meteo,2013-03-24 23:46:00,
2013-03-24 19:51:00,76.0,71.0,29.58,West,263,5.0,10.0,84,0.00,,,1.06,Meteo,2013-03-24 23:51:00,
2013-03-24 19:56:00,76.0,71.0,29.58,West,263,5.0,10.0,85,0.00,,,1.06,Meteo,2013-03-24 23:56:00,
2013-03-24 20:01:00,75.0,70.0,29.59,West,267,4.0,7.0,85,0.00,,,0.00,Meteo,2013-03-25 00:01:00,
2013-03-24 20:06:00,75.0,71.0,29.59,West,278,3.0,5.0,86,0.00,,,0.00,Meteo,2013-03-25 00:06:00,
2013-03-24 20:11:00,75.0,71.0,29.59,West,280,2.0,4.0,86,0.00,,,0.00,Meteo,2013-03-25 00:11:00,
2013-03-24 20:16:00,75.0,71.0,29.60,West,266,5.0,8.0,87,0.00,,,0.00,Meteo,2013-03-25 00:16:00,
2013-03-24 20:21:00,75.0,71.0,29.60,WNW,285,3.0,6.0,88,0.00,,,0.00,Meteo,2013-03-25 00:21:00,
2013-03-24 20:26:00,74.0,70.0,29.60,West,260,2.0,3.0,88,0.00,,,0.00,Meteo,2013-03-25 00:26:00,
2013-03-24 20:32:00,74.0,71.0,29.61,West,261,2.0,5.0,89,0.00,,,0.00,Meteo,2013-03-25 00:32:00,
2013-03-24 20:37:00,74.0,71.0,29.61,West,280,3.0,7.0,89,0.00,,,0.00,Meteo,2013-03-25 00:37:00,
2013-03-24 20:43:00,74.0,71.0,29.61,WNW,282,6.0,8.0,89,0.00,,,0.00,Meteo,2013-03-25 00:43:00,
2013-03-24 20:48:00,74.0,71.0,29.61,West,274,5.0,8.0,89,0.00,,,0.00,Meteo,2013-03-25 00:48:00,
2013-03-24 20:53:00,74.0,71.0,29.61,West,271,5.0,11.0,89,0.00,,,0.00,Meteo,2013-03-25 00:53:00,
2013-03-24 20:58:00,74.0,71.0,29.61,West,270,5.0,11.0,89,0.00,,,0.00,Meteo,2013-03-25 00:58:00,
2013-03-24 21:03:00,74.0,71.0,29.62,West,274,7.0,11.0,89,0.00,,,0.00,Meteo,2013-03-25 01:03:00,
2013-03-24 21:08:00,74.0,71.0,29.62,West,277,5.0,7.0,89,0.00,,,0.00,Meteo,2013-03-25 01:08:00,
2013-03-24 21:13:00,74.0,71.0,29.62,West,275,7.0,13.0,89,0.00,,,0.00,Meteo,2013-03-25 01:13:00,
2013-03-24 21:18:00,74.0,71.0,29.62,West,266,6.0,14.0,89,0.00,,,0.00,Meteo,2013-03-25 01:18:00,
2013-03-24 21:23:00,74.0,70.0,29.62,West,270,9.0,13.0,88,0.00,,,0.00,Meteo,2013-03-25 01:23:00,
2013-03-24 21:28:00,73.0,69.0,29.62,West,274,9.0,13.0,88,0.00,,,0.00,Meteo,2013-03-25 01:28:00,
2013-03-24 21:33:00,73.0,69.0,29.62,West,268,6.0,10.0,88,0.00,,,0.00,Meteo,2013-03-25 01:33:00,
2013-03-24 21:38:00,73.0,69.0,29.62,West,261,6.0,9.0,88,0.00,,,0.00,Meteo,2013-03-25 01:38:00,
2013-03-24 21:43:00,73.0,69.0,29.62,WSW,255,8.0,12.0,88,0.00,,,0.00,Meteo,2013-03-25 01:43:00,
2013-03-24 21:48:00,73.0,70.0,29.63,West,262,7.0,11.0,89,0.00,,,0.00,Meteo,2013-03-25 01:48:00,
2013-03-24 21:53:00,73.0,70.0,29.63,West,261,6.0,12.0,89,0.00,,,0.00,Meteo,2013-03-25 01:53:00,
2013-03-24 21:58:00,73.0,70.0,29.63,WSW,252,7.0,12.0,89,0.00,,,0.00,Meteo,2013-03-25 01:58:00,
2013-03-24 22:03:00,73.0,70.0,29.63,WSW,247,4.0,7.0,89,0.00,,,0.00,Meteo,2013-03-25 02:03:00,
2013-03-24 22:08:00,72.0,69.0,29.63,WSW,257,4.0,8.0,90,0.00,,,0.00,Meteo,2013-03-25 02:08:00,
2013-03-24 22:13:00,72.0,69.0,29.63,West,262,4.0,10.0,90,0.00,,,0.00,Meteo,2013-03-25 02:13:00,
2013-03-24 22:18:00,72.0,69.0,29.64,WSW,258,3.0,6.0,90,0.00,,,0.00,Meteo,2013-03-25 02:18:00,
2013-03-24 22:23:00,72.0,69.0,29.64,WSW,255,2.0,5.0,91,0.00,,,0.00,Meteo,2013-03-25 02:23:00,
2013-03-24 22:28:00,72.0,69.0,29.64,WSW,253,5.0,10.0,91,0.00,,,0.00,Meteo,2013-03-25 02:28:00,
2013-03-24 22:33:00,72.0,69.0,29.65,West,276,7.0,11.0,91,0.00,,,0.00,Meteo,2013-03-25 02:33:00,
2013-03-24 22:38:00,72.0,69.0,29.65,West,277,9.0,17.0,91,0.00,,,0.00,Meteo,2013-03-25 02:38:00,
2013-03-24 22:43:00,72.0,69.0,29.65,West,274,4.0,6.0,91,0.00,,,0.00,Meteo,2013-03-25 02:43:00,
2013-03-24 22:48:00,72.0,70.0,29.65,West,272,2.0,8.0,92,0.00,,,0.00,Meteo,2013-03-25 02:48:00,
2013-03-24 22:53:00,71.0,69.0,29.65,West,268,3.0,10.0,92,0.00,,,0.00,Meteo,2013-03-25 02:53:00,
2013-03-24 22:58:00,71.0,68.0,29.65,West,264,3.0,7.0,91,0.00,,,0.00,Meteo,2013-03-25 02:58:00,
2013-03-24 23:03:00,71.0,68.0,29.65,West,262,4.0,8.0,91,0.00,,,0.00,Meteo,2013-03-25 03:03:00,
2013-03-24 23:08:00,71.0,68.0,29.65,West,267,4.0,7.0,91,0.00,,,0.00,Meteo,2013-03-25 03:08:00,
2013-03-24 23:13:00,71.0,68.0,29.65,West,269,5.0,8.0,91,0.00,,,0.00,Meteo,2013-03-25 03:13:00,
2013-03-24 23:18:00,71.0,69.0,29.65,West,272,4.0,9.0,92,0.00,,,0.00,Meteo,2013-03-25 03:18:00,
2013-03-24 23:23:00,71.0,68.0,29.65,West,263,5.0,7.0,91,0.00,,,0.00,Meteo,2013-03-25 03:23:00,
2013-03-24 23:28:00,71.0,68.0,29.65,West,271,7.0,13.0,91,0.00,,,0.00,Meteo,2013-03-25 03:28:00,
2013-03-24 23:33:00,71.0,68.0,29.65,WSW,258,8.0,12.0,91,0.00,,,0.00,Meteo,2013-03-25 03:33:00,
2013-03-24 23:38:00,71.0,68.0,29.65,WSW,251,7.0,12.0,91,0.00,,,0.00,Meteo,2013-03-25 03:38:00,
2013-03-24 23:43:00,71.0,68.0,29.65,WSW,249,3.0,6.0,91,0.00,,,0.00,Meteo,2013-03-25 03:43:00,
2013-03-24 23:48:00,70.0,68.0,29.65,WSW,248,4.0,8.0,92,0.00,,,0.00,Meteo,2013-03-25 03:48:00,
2013-03-24 23:53:00,70.0,68.0,29.65,WSW,252,6.0,10.0,92,0.00,,,0.00,Meteo,2013-03-25 03:53:00,
2013-03-24 23:58:00,70.0,68.0,29.65,WSW,247,3.0,6.0,92,0.00,,,0.00,Meteo,2013-03-25 03:58:00,